Location: Blazny
(46.0612°N, 84.4033°W)
Time: 20:18:04
(UTC-04:00)

Envisat - Pass Details

Date: 21 September 2024
Orbit: 762 x 764 km, 98.3° (Epoch: 11 October)

Event Time Altitude Azimuth Distance (km) Brightness Sun altitude
Rises 04:40:19 0° 15° (NNE) 3,237 6.9 -27.6°
Reaches altitude 10° 04:42:39 10° 18° (NNE) 2,306 6.1 -27.3°
Maximum altitude 04:47:43 68° 102° (ESE) 821 3.2 -26.5°
Enters shadow 04:48:29 59° 151° (SSE) 883 3.2 -26.4°
